Weather reports worldwide

Advertisment
Coleshill, United Kingdom (3535): temperature & dewpoint: 15.02.2017 14:00:00 - 21.02.2017 14:00:00 (GMT)Coleshill, United Kingdom (3535): temperature -20cm & temperature -100cm: 15.02.2017 14:00:00 - 21.02.2017 14:00:00 (GMT)Coleshill, United Kingdom (3535): wind speed & gusts: 15.02.2017 14:00:00 - 21.02.2017 14:00:00 (GMT)Coleshill, United Kingdom (3535): wind direction: 15.02.2017 14:00:00 - 21.02.2017 14:00:00 (GMT)Coleshill, United Kingdom (3535): reduced air pressure: 15.02.2017 14:00:00 - 21.02.2017 14:00:00 (GMT)Coleshill, United Kingdom (3535): visibility: 15.02.2017 14:00:00 - 21.02.2017 14:00:00 (GMT)Coleshill, United Kingdom (3535): precipitation: 15.02.2017 14:00:00 - 21.02.2017 14:00:00 (GMT)
Date & Time tt [°C] td [°C] tt -20cm [°C] tt -100cm [°C] ff [km/h] ff [kn] fx [km/h] fx [kn] dd ppp [hPa] vv [km] rr [mm]
21.02.2017 14:00:00 - - - - - - - - - - - 0,2
21.02.2017 13:00:00 11,3 10,6 - - 13 7 - - SSW 1014,6 8 0,0
21.02.2017 12:00:00 11,5 9,6 - - 13 7 - - SSW 1015,5 14 0,0
21.02.2017 11:00:00 11,7 9,1 - - 11 6 - - SW 1016,1 50 0,0
21.02.2017 10:00:00 11,5 8,2 - - 9 5 - - WSW 1016,1 50 0,0
21.02.2017 09:00:00 10,4 8,7 7,7 6,7 8 4 - - WSW 1016,3 50 0,0
21.02.2017 08:00:00 10,0 9,0 - - 5 3 - - SW 1016,6 45 0,0
21.02.2017 07:00:00 9,9 8,7 - - 8 4 - - WSW 1016,1 45 0,0
21.02.2017 06:00:00 9,9 8,8 - - 8 4 - - SW 1016,0 50 0,0
21.02.2017 05:00:00 9,9 8,9 - - 9 5 - - WSW 1016,0 50 0,0
21.02.2017 04:00:00 10,3 9,2 - - 8 4 - - WSW 1016,1 13 0,0
21.02.2017 03:00:00 10,5 9,2 - - 9 5 - - WSW 1016,5 50 0,0
21.02.2017 02:00:00 10,7 9,1 - - 11 6 - - WSW 1016,8 50 0,0
21.02.2017 01:00:00 11,0 8,9 - - 9 5 - - WSW 1016,8 50 0,0
21.02.2017 00:00:00 10,9 9,0 - - 11 6 - - WSW 1016,9 50 0,0
20.02.2017 23:00:00 10,7 8,8 - - 8 4 - - WSW 1017,0 50 0,0
20.02.2017 22:00:00 11,4 9,1 - - 16 9 - - W 1017,0 50 0,0
20.02.2017 21:00:00 11,6 9,1 - - 13 7 - - WSW 1017,3 50 0,0
20.02.2017 20:00:00 11,6 9,1 - - 16 9 - - W 1017,1 50 0,0
20.02.2017 19:00:00 12,2 9,4 - - 21 11 - - W 1017,2 50 0,0
20.02.2017 18:00:00 12,5 9,3 - - 22 12 - - W 1016,6 50 0,0
20.02.2017 17:00:00 13,6 9,6 - - 22 12 - - W 1016,4 50 0,0
20.02.2017 16:00:00 14,2 9,9 - - 28 15 48 26 W 1016,0 50 0,0
20.02.2017 15:00:00 14,9 10,4 - - 21 11 - - W 1015,7 50 0,0
20.02.2017 14:00:00 14,8 10,8 - - 16 9 - - WSW 1015,8 50 0,0
20.02.2017 13:00:00 14,2 10,5 - - 21 11 - - WSW 1016,5 50 0,0
20.02.2017 12:00:00 14,7 11,1 - - 16 9 - - WSW 1016,8 50 0,0
20.02.2017 11:00:00 13,0 10,4 - - 15 8 - - WSW 1017,5 50 0,0
20.02.2017 10:00:00 12,1 10,0 - - 13 7 - - SW 1017,3 50 0,0
20.02.2017 09:00:00 12,1 10,0 6,9 6,5 11 6 - - SW 1017,2 50 0,0
20.02.2017 08:00:00 10,9 9,7 - - 13 7 - - SSW 1017,7 40 0,0
20.02.2017 07:00:00 11,2 9,8 - - 15 8 - - W 1018,0 50 0,0
20.02.2017 06:00:00 10,4 10,1 - - 5 3 - - WSW 1018,1 35 0,0
20.02.2017 05:00:00 9,9 9,5 - - 5 3 - - SW 1017,8 26 0,0
20.02.2017 04:00:00 9,5 9,1 - - 9 5 - - SW 1017,7 15 0,0
20.02.2017 03:00:00 9,9 9,2 - - 9 5 - - SW 1018,2 16 0,0
20.02.2017 02:00:00 10,1 9,0 - - 13 7 - - SW 1018,8 40 0,0
20.02.2017 01:00:00 9,8 8,6 - - 11 6 - - SW 1019,3 50 0,0
20.02.2017 00:00:00 9,8 8,6 - - 11 6 - - SSW 1019,8 50 0,0
19.02.2017 23:00:00 10,0 8,5 - - 8 4 - - SW 1020,1 50 0,0
19.02.2017 22:00:00 10,1 8,5 - - 9 5 - - SW 1020,0 50 0,0
19.02.2017 21:00:00 10,2 8,5 - - 8 4 - - SW 1020,0 50 0,0
19.02.2017 20:00:00 10,3 8,5 - - 8 4 - - SW 1020,2 50 0,0
19.02.2017 19:00:00 10,6 8,5 - - 9 5 - - SW 1020,1 50 0,0
19.02.2017 18:00:00 10,7 8,4 - - 9 5 - - SSW 1019,9 50 0,0
19.02.2017 17:00:00 10,8 8,1 - - 9 5 - - SW 1020,1 35 0,0
19.02.2017 16:00:00 11,4 7,7 - - 9 5 - - SW 1019,9 50 0,0
19.02.2017 15:00:00 11,2 7,4 - - 8 4 - - SW 1020,5 50 0,0
19.02.2017 14:00:00 11,7 7,5 - - 9 5 - - SW 1020,6 50 0,0
19.02.2017 13:00:00 10,9 6,9 - - 11 6 - - SW 1021,2 50 0,0
19.02.2017 12:00:00 10,1 6,5 - - 13 7 - - WSW 1021,9 50 0,0
19.02.2017 11:00:00 10,4 7,1 - - 9 5 - - WSW 1022,0 50 0,0
19.02.2017 10:00:00 9,1 6,7 - - 9 5 - - WSW 1021,9 50 0,0
19.02.2017 09:00:00 7,8 6,4 6,4 6,4 8 4 - - SW 1021,8 35 0,0
19.02.2017 08:00:00 6,8 5,9 - - 8 4 - - SSW 1021,4 15 0,0
19.02.2017 07:00:00 6,3 5,7 - - 8 4 - - SSE 1021,1 8 0,0
19.02.2017 06:00:00 5,9 5,6 - - 8 4 - - SSW 1020,5 7 0,0
19.02.2017 05:00:00 6,6 5,9 - - 11 6 - - SSW 1020,3 6 0,0
19.02.2017 04:00:00 7,4 6,4 - - 15 8 - - SW 1019,6 11 0,0
19.02.2017 03:00:00 7,8 6,4 - - 15 8 - - SSW 1020,6 9 0,0
19.02.2017 02:00:00 7,8 6,3 - - 11 6 - - SSW 1021,2 10 0,0
19.02.2017 01:00:00 7,9 6,4 - - 13 7 - - SSW 1021,3 10 0,0
19.02.2017 00:00:00 7,9 6,7 - - 13 7 - - SSW 1021,4 8 0,0
18.02.2017 23:00:00 7,9 6,7 - - 11 6 - - S 1022,1 7 0,0
18.02.2017 22:00:00 8,2 6,9 - - 9 5 - - SSW 1022,6 8 0,0
18.02.2017 21:00:00 7,5 6,6 - - 9 5 - - S 1022,5 7 0,0
18.02.2017 20:00:00 7,1 6,2 - - 15 8 - - SSW 1022,2 6 0,0
18.02.2017 19:00:00 7,2 6,1 - - 9 5 - - SSW 1022,2 7 0,0
18.02.2017 18:00:00 8,2 6,3 - - 15 8 - - SSW 1022,1 10 0,0
18.02.2017 17:00:00 8,2 6,5 - - 22 12 - - SSW 1021,9 11 0,0
18.02.2017 16:00:00 8,1 6,7 - - 18 10 - - S 1022,2 10 0,0
18.02.2017 15:00:00 7,9 6,6 - - 13 7 - - SSW 1023,0 13 0,0
18.02.2017 14:00:00 7,6 6,2 - - 15 8 - - SSW 1023,0 14 0,0
18.02.2017 13:00:00 7,5 6,4 - - 15 8 - - SSW 1023,5 13 0,0
18.02.2017 12:00:00 7,1 6,5 - - 13 7 - - SSW 1024,3 11 0,0
18.02.2017 11:00:00 6,1 6,0 - - 11 6 - - SSW 1024,9 10 0,0
18.02.2017 10:00:00 5,2 5,2 - - 11 6 - - S 1024,7 7 0,0
18.02.2017 09:00:00 4,9 4,9 6,2 6,2 15 8 - - S 1024,4 3,4 0,0
18.02.2017 08:00:00 5,0 5,0 - - 15 8 - - S 1024,3 3,4 0,0
18.02.2017 07:00:00 5,1 5,1 - - 13 7 - - S 1023,8 2,2 0,0
18.02.2017 06:00:00 5,0 5,0 - - 13 7 - - S 1024,2 2,0 0,0
18.02.2017 05:00:00 5,0 4,8 - - 13 7 - - SSE 1024,2 3,0 0,0
18.02.2017 04:00:00 5,3 4,9 - - 11 6 - - S 1024,4 5 0,0
18.02.2017 03:00:00 5,2 4,7 - - 9 5 - - S 1024,8 6 0,0
18.02.2017 02:00:00 5,4 4,8 - - 8 4 - - S 1024,8 8 0,0
18.02.2017 01:00:00 5,6 4,8 - - 8 4 - - S 1025,1 9 0,0
18.02.2017 00:00:00 6,1 5,0 - - 5 3 - - SSE 1025,4 12 0,0
17.02.2017 23:00:00 6,7 5,4 - - 8 4 - - S 1025,7 15 0,0
17.02.2017 22:00:00 6,7 5,4 - - 8 4 - - SSE 1025,8 13 0,0
17.02.2017 21:00:00 6,4 5,0 - - 8 4 - - SSE 1025,8 15 0,0
17.02.2017 20:00:00 6,6 4,9 - - 8 4 - - SSE 1026,1 16 0,0
17.02.2017 19:00:00 8,1 5,7 - - 9 5 - - S 1026,1 28 0,0
17.02.2017 18:00:00 8,7 6,0 - - 9 5 - - SSW 1026,1 25 0,0
17.02.2017 17:00:00 10,1 6,2 - - 11 6 - - SSW 1025,8 35 0,0
17.02.2017 16:00:00 11,3 6,4 - - 11 6 - - S 1025,9 50 0,0
17.02.2017 15:00:00 10,6 6,4 - - 9 5 - - S 1026,3 45 0,0
17.02.2017 14:00:00 11,5 6,4 - - 11 6 - - S 1026,6 50 0,0
17.02.2017 13:00:00 11,0 6,9 - - 8 4 - - SW 1027,2 45 0,0
17.02.2017 12:00:00 10,3 7,2 - - 9 5 - - S 1027,7 - 0,0
17.02.2017 11:00:00 9,5 7,0 - - 9 5 - - S 1027,9 29 0,0
17.02.2017 10:00:00 8,7 6,5 - - 5 3 - - S 1027,8 27 0,0
17.02.2017 09:00:00 8,0 6,4 5,9 6,0 8 4 - - SSW 1027,4 26 0,0
17.02.2017 08:00:00 7,5 6,0 - - 5 3 - - S 1027,3 25 0,0
17.02.2017 07:00:00 7,3 5,8 - - 5 3 - - S 1027,0 26 0,0
17.02.2017 06:00:00 7,4 5,8 - - 8 4 - - SW 1026,7 35 0,0
17.02.2017 05:00:00 7,4 5,7 - - 9 5 - - WSW 1026,8 30 0,0
17.02.2017 04:00:00 7,4 5,6 - - 11 6 - - SW 1026,8 35 0,0
17.02.2017 03:00:00 7,3 5,4 - - 9 5 - - SW 1026,8 45 0,0
17.02.2017 02:00:00 6,1 4,4 - - 9 5 - - SW 1027,1 50 0,0
17.02.2017 01:00:00 6,6 4,0 - - 11 6 - - SW 1027,1 50 0,0
17.02.2017 00:00:00 7,1 4,3 - - 8 4 - - SW 1027,3 50 0,0
16.02.2017 23:00:00 6,9 4,5 - - 8 4 - - WSW 1027,4 50 0,0
16.02.2017 22:00:00 7,4 4,5 - - 9 5 - - SW 1027,3 50 0,0
16.02.2017 21:00:00 7,9 4,4 - - 9 5 - - SW 1027,3 50 0,0
16.02.2017 20:00:00 7,9 4,2 - - 5 3 - - SW 1027,4 50 0,0
16.02.2017 19:00:00 8,5 4,6 - - 8 4 - - SW 1027,2 50 0,0
16.02.2017 18:00:00 8,5 4,9 - - 11 6 - - SW 1026,7 50 0,0
16.02.2017 17:00:00 8,6 4,7 - - 13 7 - - WSW 1026,8 50 0,0
16.02.2017 16:00:00 9,1 5,2 - - 13 7 - - SW 1026,9 35 0,2
16.02.2017 15:00:00 9,6 5,6 - - 13 7 - - WSW 1026,8 12 0,0
16.02.2017 14:00:00 10,0 5,8 - - 13 7 - - SW 1026,9 45 0,0
16.02.2017 13:00:00 10,8 6,6 - - 15 8 - - SW 1027,2 35 0,0
16.02.2017 12:00:00 10,8 6,3 - - 16 9 - - SW 1028,2 45 0,0
16.02.2017 11:00:00 8,1 5,6 - - 13 7 - - SW 1028,7 35 0,0
16.02.2017 10:00:00 7,7 5,3 - - 15 8 - - SW 1028,7 30 0,0
16.02.2017 09:00:00 6,3 5,1 5,7 6,0 13 7 - - SSW 1028,6 26 0,0
16.02.2017 08:00:00 4,8 4,1 - - 13 7 - - SSW 1028,5 18 0,0
16.02.2017 07:00:00 5,4 4,3 - - 13 7 - - SSW 1028,0 22 0,0
16.02.2017 06:00:00 5,7 4,5 - - 11 6 - - SSW 1027,8 23 0,0
16.02.2017 05:00:00 6,5 5,0 - - 11 6 - - SW 1028,0 25 0,0
16.02.2017 04:00:00 6,8 5,4 - - 11 6 - - SW 1027,8 25 0,0
16.02.2017 03:00:00 7,0 6,0 - - 11 6 - - SW 1027,7 24 0,0
16.02.2017 02:00:00 6,9 6,5 - - 13 7 - - SSW 1027,6 12 0,0
16.02.2017 01:00:00 7,3 6,8 - - 11 6 - - SSW 1027,2 20 0,0
16.02.2017 00:00:00 8,1 7,4 - - 15 8 - - SSW 1027,2 23 0,0
15.02.2017 23:00:00 7,9 7,2 - - 15 8 - - S 1026,9 28 0,0
15.02.2017 22:00:00 8,0 7,0 - - 16 9 - - SSW 1026,7 27 0,0
15.02.2017 21:00:00 8,1 6,9 - - 15 8 - - SSW 1026,3 30 0,0
15.02.2017 20:00:00 7,8 7,3 - - 13 7 - - SSW 1026,2 14 0,0
15.02.2017 19:00:00 7,9 7,5 - - 13 7 - - SSW 1025,9 8 0,0
15.02.2017 18:00:00 8,2 7,8 - - 13 7 - - SSW 1025,5 8 0,2
15.02.2017 17:00:00 8,3 7,9 - - 8 4 - - WSW 1025,1 5 1,6
15.02.2017 16:00:00 8,3 7,8 - - 11 6 - - WSW 1024,9 6 3,0
15.02.2017 15:00:00 9,0 8,9 - - 5 3 - - S 1024,7 2,6 0,4
15.02.2017 14:00:00 9,0 8,8 - - 8 4 - - S 1025,0 2,2 1,2

tt = temperature
td = dewpoint
tt -20cm = temperature -20cm
tt -100cm = temperature -100cm
ff = wind speed
fx = gusts
dd = wind direction
ppp = reduced air pressure
vv = visibility
rr = precipitation

Next stations